Regional Weather Roundup
Issued by NWS Charleston, WV

Home | Current Version | Previous Version | Text Only | Print | Product List | Glossary Off
Versions: 1 2 3 4 5 6 7 8 9 10 11 12 13 14 15 16 17 18 19 20 21 22 23 24 25

000
ASUS41 KRLX 172210
RWRRLX
West Virginia Regional Weather Roundup
National Weather Service Charleston WV
500 PM EST SAT FEB 17 2018

Note: "fair" indicates few or no clouds below 12,000 feet with no
significant weather and/or obstructions to visibility.

WVZ003-172300-
Northern Panhandle of West Virginia

CITY           SKY/WX    TMP DP  RH WIND       PRES   REMARKS
WHEELING       SNOW      31  30  96 SE8       30.00F VSB 1/2
$$

WVZ009-172300-
Northwest West Virginia

CITY           SKY/WX    TMP DP  RH WIND       PRES   REMARKS
PARKERSBURG    SNOW      32  31  96 SE5       30.04F VSB 1/4
$$

WVZ006-172300-
Western West Virginia

CITY           SKY/WX    TMP DP  RH WIND       PRES   REMARKS
HUNTINGTON     RAIN      38  36  92 CALM      29.99F FOG
$$

WVZ015-172300-
West Central West Virginia

CITY           SKY/WX    TMP DP  RH WIND       PRES   REMARKS
CHARLESTON     RAIN      40  39  97 S9        30.01S FOG
$$

WVZ022-031-172300-
North Central West Virginia

CITY           SKY/WX    TMP DP  RH WIND       PRES   REMARKS
CLARKSBURG     SNOW      33  31  92 N5        30.01F VSB 1/2
MORGANTOWN     LGT SNOW  32  31  96 CALM      30.02R VSB 3/4
$$

WVZ025-035-042-045-172300-
Southern West Virginia

CITY           SKY/WX    TMP DP  RH WIND       PRES   REMARKS
BECKLEY        LGT RAIN  33  32  96 SE7       30.01R
LOGAN          LGT RAIN  37  37 100 CALM      30.01F
BLUEFIELD      RAIN      35  34  96 SE3       30.01S FOG
LEWISBURG      LGT SNOW  33  32  98 SE3       30.03F
$$

WVZ047-172300-
Northern Mountains of West Virginia

CITY           SKY/WX    TMP DP  RH WIND       PRES   REMARKS
ELKINS         LGT SNOW  34  32  92 S13       29.99F FOG
$$

WVZ052-172300-
Eastern Panhandle of West Virginia

CITY           SKY/WX    TMP DP  RH WIND       PRES   REMARKS
MARTINSBURG    LGT SNOW  32  31  96 SE6       30.11F FOG
PETERSBURG     LGT SNOW  32  32  99 SE3       30.06F VSB 1
$$




USA.gov is the U.S. government's official web portal to all federal, state and local government web resources and services.